SCP
0 0 1 1 1 1 0 0 0 0 0 1 1 1 1 1 1 1 1 1 2 2 2 2 1 1 1 1 1 1 2 2 2 2 3 3 3 2 2 2 2 3 3
0 0 0 1 0 0 0 0 0 0 0 0 0 1 1 1 1 1 1 1 2 2 2 2 2 2 2 2 2 3 3 3 3 3 3 3 3 3 3 2 2 2 2
1 1 1 0 0 0 0 0 0 0 0 0 0 1 1 1 1 1 1 1 1 2 2 2 2 2 3 3 3 4 4 3 3 3 3 3 3 3 3 3 3 3 3
1 1 1 1 1 0 0 1 1 1 0 1 1 1 1 1 1 1 1 1 1 1 2 2 2 2 2 3 3 3 4 4 4 4 4 3 3 3 3 3 3 3 3
1 1 1 1 1 1 1 1 1 1 1 1 1 1 1 1 1 1 1 1 1 1 1 2 2 2 2 2 2 3 3 3 4 4 4 4 4 4 3 3 3 3 3
1 1 1 1 1 1 1 1 1 1 1 1 1 1 1 1 1 1 1 2 2 2 2 2 2 2 2 2 2 2 3 3 3 3 4 4 4 4 4 4 3 3 3
1 1 1 1 1 1 1 1 1 1 1 1 1 1 1 1 1 2 2 2 2 2 2 2 2 2 2 2 2 2 2 2 3 3 3 3 3 4 4 4 4 4 3
1 1 1 1 1 1 1 1 1 1 2 2 2 2 2 1 2 2 2 2 2 2 2 2 3 3 3 3 2 2 2 2 2 2 2 2 2 3 4 4 4 4 4
1 1 1 1 2 1 1 1 2 2 2 2 2 2 2 2 2 2 2 2 2 2 2 3 3 3 3 3 3 2 2 2 2 2 2 2 2 2 2 3 3 4 4
1 1 1 1 1 2 2 2 2 2 2 2 2 2 3 3 3 3 3 2 2 2 2 3 4 4 3 3 3 3 2 2 2 2 2 2 2 2 2 2 3 3 3
1 1 1 1 1 2 2 2 2 2 2 2 2 2 3 4 6 6 5 4 3 2 2 4 5 4 3 3 3 3 2 2 1 1 2 2 2 2 2 2 2 2 3
1 1 1 1 1 2 2 3 3 3 3 3 3 3 3 5 7 9 8 6 5 4 3 4 5 4 3 2 2 2 2 1 1 1 1 2 2 2 2 2 2 2 2
2 2 1 1 2 2 2 3 3 3 3 4 4 4 3 4 8 10 10 9 7 5 4 4 4 2 2 2 2 2 2 1 1 1 1 1 1 2 2 2 1 2 2
2 2 1 2 2 2 3 3 4 4 4 4 4 4 4 5 7 9 10 10 8 6 5 4 3 2 1 2 2 2 2 2 1 1 1 1 1 1 1 1 1 1 1
1 1 1 2 2 3 4 4 5 5 5 6 6 6 6 6 7 9 9 9 8 6 4 3 2 1 1 2 2 2 2 2 2 1 1 1 1 1 1 1 1 1 1
1 1 2 2 3 4 5 5 6 6 7 8 8 9 9 10 10 10 10 9 7 5 3 2 2 1 1 2 2 2 3 3 3 1 1 1 1 1 1 1 0 0 0
2 2 3 3 4 4 5 6 7 8 8 9 10 11 12 12 12 11 9 7 5 3 2 1 1 2 2 2 2 2 3 5 4 2 1 1 1 1 1 1 0 0 0
2 2 3 4 4 4 6 7 7 8 8 8 9 10 11 11 10 9 7 5 3 2 2 2 2 2 2 2 2 3 4 5 5 3 2 1 1 1 1 0 0 0 0
2 2 3 3 4 4 5 6 6 6 6 6 7 7 7 7 6 5 5 3 3 3 3 3 3 3 2 2 3 3 4 5 4 3 2 1 1 1 0 0 0 0 0
3 2 3 3 3 3 4 4 4 5 4 5 5 5 4 4 3 3 3 3 3 3 4 4 3 3 3 3 4 3 4 4 4 4 3 2 1 1 1 1 0 0 0
3 3 3 2 2 2 2 3 4 5 5 5 5 5 4 3 2 2 2 3 3 4 4 4 3 3 4 6 6 6 4 4 4 5 5 4 3 2 2 2 1 0 0
5 4 3 3 2 2 1 2 3 5 5 6 6 6 5 3 2 2 2 2 2 3 3 3 3 4 5 7 7 6 5 5 6 8 8 7 5 4 3 2 1 0 0
5 5 4 4 4 3 2 1 2 4 5 6 7 7 6 4 3 2 1 1 1 2 3 3 3 3 4 6 6 5 5 7 9 11 10 8 6 4 3 2 1 0 0
6 6 6 6 5 4 2 1 2 3 5 6 7 7 7 5 3 2 2 2 2 3 3 4 3 3 3 4 4 4 4 6 9 10 10 8 6 5 4 2 1 0 0
6 6 6 6 6 5 3 1 1 3 6 6 6 7 7 5 3 2 2 3 3 3 3 3 3 2 2 3 3 4 4 4 5 7 8 7 6 5 4 2 1 0 0
6 6 6 6 5 5 3 1 1 3 6 6 6 6 6 5 3 2 3 3 3 3 3 3 2 2 2 2 3 5 5 4 4 5 7 7 7 5 3 1 1 0 0
Wind_Speed
4 4 4 3 3 3 3 2 3 3 2 1 1 2 1 2 2 2 4 8 6 5 4 4 4 4 4 4 5 5 6 7 7 7 7 7 8 8 8 8 8 8 8
4 3 3 3 3 3 3 2 3 2 1 1 1 2 1 1 1 1 2 5 7 5 4 4 4 4 4 4 4 6 6 6 7 7 7 7 7 7 7 8 8 9 9
3 2 3 3 3 3 3 2 2 1 1 1 1 1 1 0 0 1 1 1 4 6 5 4 4 4 4 4 4 4 5 6 6 6 6 6 6 6 7 7 8 8 8
3 2 2 3 2 2 1 1 1 1 1 1 1 1 0 1 1 1 1 1 1 2 5 6 4 4 4 4 4 4 4 5 5 5 5 6 6 6 7 7 7 6 7
2 1 2 2 1 1 2 1 2 1 1 1 1 1 0 0 0 1 1 2 2 2 1 5 6 5 5 5 5 5 5 5 5 5 5 5 6 6 6 6 6 5 6
2 1 1 2 2 2 1 2 2 2 1 1 1 1 1 1 0 1 2 2 2 2 2 2 3 5 6 5 4 5 5 5 5 5 5 6 6 6 7 7 7 6 6
2 1 1 1 1 1 2 1 1 1 0 0 1 0 1 1 0 0 1 1 1 1 1 1 2 2 3 6 5 4 4 4 4 5 5 6 6 6 7 7 7 7 7
1 0 1 1 1 1 1 1 1 1 1 1 2 2 1 2 1 1 1 1 1 1 1 2 1 1 2 1 4 4 3 4 4 4 5 5 5 5 6 8 9 9 8
1 1 1 2 2 2 1 2 1 2 2 1 2 3 3 1 1 1 1 1 1 2 2 1 1 1 2 2 0 3 2 2 3 4 4 4 4 5 6 6 7 8 8
0 1 1 1 2 2 1 2 1 2 3 2 0 1 2 3 3 1 2 1 1 2 2 2 2 1 1 1 1 2 1 1 3 3 4 4 4 4 5 6 6 7 7
0 0 1 1 1 2 2 3 2 3 2 3 2 1 1 1 3 3 2 2 1 1 1 2 2 1 1 1 1 2 2 1 2 3 3 4 4 5 5 6 7 7 7
1 0 0 1 2 2 2 2 2 2 3 3 3 2 2 2 2 2 3 3 2 1 1 1 2 1 1 1 0 4 1 1 2 2 3 4 4 4 5 5 6 6 6
1 1 0 1 1 1 2 2 2 2 2 2 2 2 2 2 2 3 3 3 3 2 2 2 2 1 1 1 0 3 1 2 2 2 3 4 4 4 5 5 6 6 6
0 1 1 1 1 2 2 1 2 1 1 2 2 3 3 3 3 3 3 4 4 3 2 1 1 1 1 2 1 1 1 2 2 3 4 4 4 4 4 5 5 6 6
1 1 1 1 1 1 2 2 1 2 2 2 2 2 3 3 3 3 3 4 5 5 3 1 2 0 1 1 0 2 2 1 1 3 4 4 4 4 4 4 5 5 5
1 1 2 2 2 2 2 2 2 1 2 2 2 3 3 3 2 3 3 4 4 5 4 2 1 1 2 2 1 3 3 2 3 3 3 3 4 4 3 3 4 4 4
2 2 2 2 2 2 2 2 3 2 3 3 3 3 3 4 3 3 3 3 4 4 4 3 2 1 2 4 2 3 3 3 1 2 2 3 3 2 2 2 3 3 3
3 3 3 3 3 2 2 3 4 3 3 3 3 4 4 3 3 4 3 4 3 4 5 5 3 3 3 3 3 4 3 2 2 2 2 2 2 2 2 2 2 2 2
4 3 3 3 3 3 3 3 3 4 4 3 3 4 4 4 4 4 4 4 4 4 4 5 4 3 3 2 3 3 3 3 4 2 4 4 3 2 3 3 3 2 2
4 4 3 3 3 3 3 3 4 4 4 3 3 4 4 4 4 5 4 4 4 5 5 5 4 3 3 3 3 3 3 2 3 3 2 2 3 5 4 4 3 3 2
4 3 4 4 4 4 3 3 4 4 4 4 4 4 4 3 4 5 5 4 5 5 5 4 4 4 3 3 3 3 4 3 2 3 2 2 2 2 3 4 4 2 1
4 4 4 4 4 3 0 2 5 4 4 4 4 4 4 3 3 3 4 5 6 6 5 5 4 4 4 4 3 4 4 4 3 1 3 3 2 2 1 1 2 3 2
4 4 4 4 4 2 1 2 5 5 5 4 4 4 4 2 3 3 4 5 5 6 7 7 6 6 5 4 5 5 4 5 5 3 3 3 2 2 1 1 4 4 3
4 4 4 5 4 2 2 3 4 6 5 4 4 4 4 4 3 4 5 4 5 4 5 5 5 6 5 4 4 5 5 5 5 3 3 4 3 2 1 1 5 4 4
4 4 4 4 4 3 3 4 5 5 4 4 4 4 4 4 3 5 5 5 5 4 2 3 3 4 4 5 5 5 4 4 4 2 2 4 3 2 2 2 3 6 6
3 4 3 4 4 4 3 4 5 5 4 4 4 4 4 4 3 4 5 5 5 5 4 3 4 5 5 4 5 5 5 5 4 3 1 3 3 3 3 2 1 2 3
Wind_Direction
60 57 53 49 54 69 85 75 71 81 90 126 126 114 109 113 116 136 124 136 155 175 194 208 209 212 216 214 214 219 221 224 224 225 226 226 227 226 228 232 235 235 232
58 53 64 54 50 49 48 53 70 76 78 84 104 113 130 117 119 144 139 143 157 174 191 208 218 222 226 229 230 233 234 233 231 230 231 230 232 232 233 237 238 235 233
68 61 64 60 50 48 61 61 60 68 119 116 109 113 132 97 94 151 203 185 161 169 182 197 210 218 228 236 238 235 236 234 232 228 225 226 234 235 239 241 240 234 230
66 48 57 55 47 42 47 64 66 43 65 59 58 29 65 146 190 200 207 201 223 175 172 180 194 208 223 229 232 234 230 224 226 226 225 226 233 237 237 238 239 233 230
68 46 47 42 17 33 26 4 57 12 55 45 75 116 1 320 200 210 213 204 191 217 203 163 184 204 223 231 235 237 233 230 226 224 227 229 233 234 233 233 231 232 234
71 17 75 46 9 25 14 21 18 24 11 21 17 42 18 351 286 229 232 211 202 211 226 241 202 194 201 221 234 240 243 246 239 234 232 235 237 236 230 230 229 229 229
70 43 28 47 349 23 0 348 352 75 79 322 245 184 169 164 137 234 261 267 201 221 248 273 274 284 190 189 210 231 247 260 252 242 238 238 240 237 227 226 228 229 228
52 100 28 350 27 28 19 353 325 315 307 287 292 275 235 178 165 163 215 230 283 256 228 231 264 267 285 221 140 185 234 267 271 262 254 246 243 242 237 232 229 228 226
68 20 5 355 342 340 17 330 309 298 301 296 317 305 307 348 314 177 240 261 289 291 277 267 246 255 257 283 223 167 199 276 283 283 276 259 246 242 243 241 237 233 230
31 27 4 349 324 334 340 303 2 301 288 293 266 302 323 330 296 269 219 219 263 265 287 290 289 246 254 258 58 52 120 287 291 294 294 278 260 250 250 248 246 245 238
242 346 345 330 307 312 343 332 330 312 305 308 308 296 278 244 264 280 296 293 258 256 262 262 271 280 274 267 262 77 101 286 295 294 294 288 277 265 259 259 254 249 243
183 129 313 317 299 321 320 313 311 312 322 317 306 300 284 291 289 287 284 275 291 298 292 303 279 264 260 259 337 79 103 255 277 282 287 288 280 272 262 259 258 255 247
185 123 300 295 310 310 297 300 291 321 308 301 294 303 307 301 300 295 290 296 295 269 230 239 257 275 274 277 147 105 184 212 254 271 278 281 276 270 262 261 260 259 255
171 101 209 247 278 283 293 299 289 288 298 296 300 307 298 297 296 289 290 293 286 273 241 250 260 266 292 278 65 231 244 161 238 265 273 276 274 266 261 261 261 262 263
219 195 241 254 260 266 290 278 290 301 297 282 284 265 279 294 288 287 282 283 285 287 289 214 239 238 273 287 329 269 284 116 254 275 273 274 274 267 262 263 270 268 269
257 248 250 261 263 267 274 274 261 266 271 275 294 313 299 294 298 282 278 277 274 281 291 301 287 291 311 288 215 284 280 195 231 249 258 264 268 266 263 265 268 267 266
230 245 253 263 268 270 277 281 289 279 272 279 281 281 286 302 297 286 273 268 269 271 274 280 269 257 260 279 284 283 279 274 252 181 238 261 259 257 259 266 270 272 271
228 236 252 260 263 264 268 272 279 282 274 273 280 285 284 282 276 281 285 279 278 274 273 282 277 266 255 259 273 280 285 287 293 162 197 236 250 247 245 248 251 256 261
230 238 243 252 262 263 263 268 275 280 278 277 277 276 281 285 283 288 280 278 275 269 268 267 271 275 265 265 272 267 282 292 284 193 189 199 201 215 235 237 232 229 233
229 236 242 245 253 256 257 264 265 267 270 272 271 273 278 279 282 281 272 269 276 276 268 265 268 265 261 261 265 275 280 281 294 300 301 259 201 204 213 213 210 209 215
230 232 244 244 249 248 255 264 263 258 263 268 270 272 276 291 310 301 298 297 286 276 272 269 272 271 277 285 283 289 290 285 277 287 286 271 240 235 208 201 195 177 172
233 237 243 247 249 258 79 271 271 264 260 260 265 268 262 245 253 259 282 296 296 283 287 286 283 287 292 288 300 290 290 289 291 290 281 282 277 276 273 260 130 146 164
231 234 240 245 249 240 184 239 263 265 260 263 267 271 276 278 262 262 248 238 249 255 264 275 282 285 286 293 290 283 289 293 303 308 285 283 280 278 270 96 127 144 164
236 236 240 245 248 232 187 224 255 253 260 261 262 266 275 279 288 294 277 273 272 262 254 249 262 273 281 290 279 280 278 263 259 257 267 279 283 284 282 155 142 153 157
243 240 237 242 243 237 201 214 241 249 248 253 256 255 263 268 297 293 272 273 277 269 243 241 270 279 294 287 286 275 272 270 275 273 262 278 283 288 275 241 168 167 167
248 252 246 248 245 246 207 203 231 249 247 248 242 238 232 258 274 276 266 271 276 280 283 254 234 235 239 233 242 260 272 274 278 278 268 279 280 277 263 242 231 189 185